Time,TemperatureF,DewpointF,PressureIn,WindDirection,WindDirectionDegrees,WindSpeedMPH,WindSpeedGustMPH,Humidity,HourlyPrecipIn,Conditions,Clouds,dailyrainin,SolarRadiationWatts/m^2,SoftwareType,DateUTC
2013-04-11 00:00:00,79.9,57.3,29.93,NNE,27,9.0,18.0,46,0.00,,SCT,0.00,0.00,VWS V14.01,2013-04-11 04:00:00,
2013-04-11 00:05:00,79.6,57.6,29.93,NNE,19,7.0,18.0,47,0.00,,SCT,0.00,0.00,VWS V14.01,2013-04-11 04:05:00,
2013-04-11 00:10:00,79.4,57.4,29.93,NE,38,8.0,18.0,47,0.00,,SCT,0.00,0.00,VWS V14.01,2013-04-11 04:10:00,
2013-04-11 00:15:00,79.2,57.8,29.93,North,5,6.0,18.0,48,0.00,,SCT,0.00,0.00,VWS V14.01,2013-04-11 04:15:00,
2013-04-11 00:20:00,79.0,57.7,29.93,NNE,23,11.0,18.0,48,0.00,,SCT,0.00,0.00,VWS V14.01,2013-04-11 04:20:00,
2013-04-11 00:25:00,78.9,57.6,29.93,North,5,9.0,18.0,48,0.00,,SCT,0.00,0.00,VWS V14.01,2013-04-11 04:25:00,
2013-04-11 00:30:00,78.7,57.4,29.93,NNE,26,11.0,18.0,48,0.00,,SCT,0.00,0.00,VWS V14.01,2013-04-11 04:30:00,
2013-04-11 00:35:00,78.5,57.8,29.93,NNE,21,11.0,18.0,49,0.00,,SCT,0.00,0.00,VWS V14.01,2013-04-11 04:35:00,
2013-04-11 00:40:00,78.3,57.6,29.93,NNE,23,11.0,18.0,49,0.00,,SCT,0.00,0.00,VWS V14.01,2013-04-11 04:40:00,
2013-04-11 00:45:00,78.0,57.9,29.93,NNE,23,8.0,18.0,50,0.00,,SCT,0.00,0.00,VWS V14.01,2013-04-11 04:45:00,
2013-04-11 00:50:00,77.9,57.8,29.93,NNE,24,10.0,18.0,50,0.00,,SCT,0.00,0.00,VWS V14.01,2013-04-11 04:50:00,
2013-04-11 00:55:00,78.0,57.9,29.92,North,10,10.0,14.0,50,0.00,,SCT,0.00,0.00,VWS V14.01,2013-04-11 04:55:00,
2013-04-11 01:00:00,77.9,57.8,29.92,North,355,11.0,16.0,50,0.00,,SCT,0.00,0.00,VWS V14.01,2013-04-11 05:00:00,
2013-04-11 01:05:00,78.0,57.9,29.92,North,360,8.0,16.0,50,0.00,,SCT,0.00,0.00,VWS V14.01,2013-04-11 05:05:00,
2013-04-11 01:10:00,77.8,58.2,29.92,NNE,21,8.0,16.0,51,0.00,,SCT,0.00,0.00,VWS V14.01,2013-04-11 05:10:00,
2013-04-11 01:15:00,77.8,58.2,29.92,NNE,31,10.0,16.0,51,0.00,,SCT,0.00,0.00,VWS V14.01,2013-04-11 05:15:00,
2013-04-11 01:20:00,77.8,58.2,29.92,NNE,25,11.0,18.0,51,0.00,,SCT,0.00,0.00,VWS V14.01,2013-04-11 05:20:00,
2013-04-11 01:25:00,77.7,58.2,29.92,NNW,346,9.0,18.0,51,0.00,,SCT,0.00,0.00,VWS V14.01,2013-04-11 05:25:00,
2013-04-11 01:30:00,77.5,58.0,29.92,NNE,14,9.0,18.0,51,0.00,,SCT,0.00,0.00,VWS V14.01,2013-04-11 05:30:00,
2013-04-11 01:35:00,77.3,57.8,29.92,North,9,10.0,18.0,51,0.00,,SCT,0.00,0.00,VWS V14.01,2013-04-11 05:35:00,
2013-04-11 01:40:00,77.3,58.3,29.92,NNE,26,9.0,18.0,52,0.00,,SCT,0.00,0.00,VWS V14.01,2013-04-11 05:40:00,
2013-04-11 01:45:00,77.2,58.2,29.92,NNE,22,12.0,18.0,52,0.00,,SCT,0.00,0.00,VWS V14.01,2013-04-11 05:45:00,
2013-04-11 01:50:00,77.1,58.1,29.92,North,355,9.0,18.0,52,0.00,,SCT,0.00,0.00,VWS V14.01,2013-04-11 05:50:00,
2013-04-11 01:55:00,76.9,58.5,29.92,NNE,30,8.0,16.0,53,0.00,,SCT,0.00,0.00,VWS V14.01,2013-04-11 05:55:00,
2013-04-11 02:00:00,76.8,58.4,29.92,NNE,14,8.0,16.0,53,0.00,,SCT,0.00,0.00,VWS V14.01,2013-04-11 06:00:00,
2013-04-11 02:05:00,76.6,58.2,29.92,NE,46,5.0,16.0,53,0.00,,SCT,0.00,0.00,VWS V14.01,2013-04-11 06:05:00,
2013-04-11 02:10:00,76.5,58.1,29.93,North,360,9.0,16.0,53,0.00,,SCT,0.00,0.00,VWS V14.01,2013-04-11 06:10:00,
2013-04-11 02:15:00,76.3,58.5,29.93,NE,47,8.0,16.0,54,0.00,,SCT,0.00,0.00,VWS V14.01,2013-04-11 06:15:00,
2013-04-11 02:20:00,76.3,58.5,29.93,NE,50,5.0,16.0,54,0.00,,SCT,0.00,0.00,VWS V14.01,2013-04-11 06:20:00,
2013-04-11 02:25:00,76.2,58.4,29.93,NE,39,6.0,16.0,54,0.00,,SCT,0.00,0.00,VWS V14.01,2013-04-11 06:25:00,
2013-04-11 02:30:00,76.1,58.3,29.93,NNE,27,8.0,16.0,54,0.00,,SCT,0.00,0.00,VWS V14.01,2013-04-11 06:30:00,
2013-04-11 02:35:00,76.1,58.8,29.92,NE,42,7.0,16.0,55,0.00,,SCT,0.00,0.00,VWS V14.01,2013-04-11 06:35:00,
2013-04-11 02:40:00,75.9,58.6,29.92,NNE,30,13.0,16.0,55,0.00,,SCT,0.00,0.00,VWS V14.01,2013-04-11 06:40:00,
2013-04-11 02:45:00,75.8,58.5,29.92,NNE,30,11.0,16.0,55,0.00,,SCT,0.00,0.00,VWS V14.01,2013-04-11 06:45:00,
2013-04-11 02:50:00,75.7,58.4,29.92,NNE,28,10.0,16.0,55,0.00,,SCT,0.00,0.00,VWS V14.01,2013-04-11 06:50:00,
2013-04-11 02:55:00,75.6,58.3,29.92,NNE,17,12.0,14.0,55,0.00,,SCT,0.00,0.00,VWS V14.01,2013-04-11 06:55:00,
2013-04-11 03:00:00,75.6,58.8,29.92,North,5,9.0,14.0,56,0.00,,SCT,0.00,0.00,VWS V14.01,2013-04-11 07:00:00,
2013-04-11 03:05:00,75.5,58.7,29.92,North,360,5.0,15.0,56,0.00,,SCT,0.00,0.00,VWS V14.01,2013-04-11 07:05:00,
2013-04-11 03:10:00,75.4,58.6,29.92,NNE,24,9.0,15.0,56,0.00,,SCT,0.00,0.00,VWS V14.01,2013-04-11 07:10:00,
2013-04-11 03:15:00,75.3,58.5,29.92,NNE,19,8.0,15.0,56,0.00,,SCT,0.00,0.00,VWS V14.01,2013-04-11 07:15:00,
2013-04-11 03:20:00,75.3,58.5,29.92,NNE,15,5.0,15.0,56,0.00,,SCT,0.00,0.00,VWS V14.01,2013-04-11 07:20:00,
2013-04-11 03:25:00,75.2,58.9,29.92,North,9,6.0,15.0,57,0.00,,SCT,0.00,0.00,VWS V14.01,2013-04-11 07:25:00,
2013-04-11 03:30:00,75.1,58.8,29.92,NNE,17,6.0,15.0,57,0.00,,SCT,0.00,0.00,VWS V14.01,2013-04-11 07:30:00,
2013-04-11 03:35:00,75.1,58.8,29.92,NE,35,2.0,15.0,57,0.00,,SCT,0.00,0.00,VWS V14.01,2013-04-11 07:35:00,
2013-04-11 03:40:00,74.8,58.6,29.92,NE,56,2.0,15.0,57,0.00,,SCT,0.00,0.00,VWS V14.01,2013-04-11 07:40:00,
2013-04-11 03:45:00,74.5,58.8,29.92,NNE,13,1.0,15.0,58,0.00,,SCT,0.00,0.00,VWS V14.01,2013-04-11 07:45:00,
2013-04-11 03:50:00,73.0,57.8,29.92,SSE,149,2.0,15.0,59,0.00,,SCT,0.00,0.00,VWS V14.01,2013-04-11 07:50:00,
2013-04-11 03:55:00,71.8,58.1,29.92,SSW,207,3.0,4.0,62,0.00,,SCT,0.00,0.00,VWS V14.01,2013-04-11 07:55:00,
2013-04-11 04:00:00,71.3,58.1,29.92,SSW,195,2.0,4.0,63,0.00,,SCT,0.00,0.00,VWS V14.01,2013-04-11 08:00:00,
2013-04-11 04:05:00,71.9,58.6,29.93,South,184,2.0,4.0,63,0.00,,SCT,0.00,0.00,VWS V14.01,2013-04-11 08:05:00,
2013-04-11 04:10:00,71.4,58.2,29.93,SSW,209,4.0,5.0,63,0.00,,SCT,0.00,0.00,VWS V14.01,2013-04-11 08:10:00,
2013-04-11 04:15:00,71.3,58.1,29.93,SSW,212,2.0,5.0,63,0.00,,SCT,0.00,0.00,VWS V14.01,2013-04-11 08:15:00,
2013-04-11 04:20:00,71.6,58.8,29.93,SSW,212,0.0,5.0,64,0.00,,SCT,0.00,0.00,VWS V14.01,2013-04-11 08:20:00,
2013-04-11 04:25:00,72.0,58.7,29.92,SSW,212,0.0,5.0,63,0.00,,SCT,0.00,0.00,VWS V14.01,2013-04-11 08:25:00,
2013-04-11 04:30:00,72.5,58.8,29.92,NW,304,0.0,5.0,62,0.00,,SCT,0.00,0.00,VWS V14.01,2013-04-11 08:30:00,
2013-04-11 04:35:00,72.3,58.6,29.93,NW,304,0.0,5.0,62,0.00,,SCT,0.00,0.00,VWS V14.01,2013-04-11 08:35:00,
2013-04-11 04:40:00,71.3,58.1,29.93,WSW,238,2.0,5.0,63,0.00,,SCT,0.00,0.00,VWS V14.01,2013-04-11 08:40:00,
2013-04-11 04:45:00,70.2,57.9,29.93,WSW,238,2.0,5.0,65,0.00,,SCT,0.00,0.00,VWS V14.01,2013-04-11 08:45:00,
2013-04-11 04:50:00,69.4,58.0,29.93,South,185,3.0,5.0,67,0.00,,SCT,0.00,0.00,VWS V14.01,2013-04-11 08:50:00,
2013-04-11 04:55:00,69.3,58.3,29.93,South,185,1.0,2.0,68,0.00,,SCT,0.00,0.00,VWS V14.01,2013-04-11 08:55:00,
2013-04-11 05:00:00,69.7,58.3,29.93,South,185,0.0,2.0,67,0.00,,SCT,0.00,0.00,VWS V14.01,2013-04-11 09:00:00,
2013-04-11 05:05:00,69.6,58.2,29.92,South,185,0.0,2.0,67,0.00,,SCT,0.00,0.00,VWS V14.01,2013-04-11 09:05:00,
2013-04-11 05:10:00,69.0,58.0,29.92,South,185,1.0,2.0,68,0.00,,SCT,0.00,0.00,VWS V14.01,2013-04-11 09:10:00,
2013-04-11 05:15:00,68.4,58.2,29.92,South,185,0.0,2.0,70,0.00,,SCT,0.00,0.00,VWS V14.01,2013-04-11 09:15:00,
2013-04-11 05:20:00,68.2,58.0,29.92,South,185,0.0,2.0,70,0.00,,SCT,0.00,0.00,VWS V14.01,2013-04-11 09:20:00,
2013-04-11 05:25:00,67.9,58.2,29.93,South,185,1.0,2.0,71,0.00,,SCT,0.00,0.00,VWS V14.01,2013-04-11 09:25:00,
2013-04-11 05:30:00,67.7,58.4,29.93,South,185,0.0,2.0,72,0.00,,SCT,0.00,0.00,VWS V14.01,2013-04-11 09:30:00,
2013-04-11 05:35:00,67.9,58.2,29.93,South,185,0.0,2.0,71,0.00,,SCT,0.00,0.00,VWS V14.01,2013-04-11 09:35:00,
2013-04-11 05:40:00,67.8,58.5,29.93,ESE,121,2.0,4.0,72,0.00,,SCT,0.00,0.00,VWS V14.01,2013-04-11 09:40:00,
2013-04-11 05:45:00,67.5,58.2,29.94,NE,38,1.0,4.0,72,0.00,,SCT,0.00,0.00,VWS V14.01,2013-04-11 09:45:00,
2013-04-11 05:50:00,67.4,58.1,29.94,NE,38,3.0,4.0,72,0.00,,SCT,0.00,0.00,VWS V14.01,2013-04-11 09:50:00,
2013-04-11 05:55:00,67.2,58.3,29.94,NE,45,2.0,4.0,73,0.00,,SCT,0.00,0.00,VWS V14.01,2013-04-11 09:55:00,
2013-04-11 06:00:00,67.0,58.1,29.95,NNE,27,2.0,4.0,73,0.00,,SCT,0.00,0.00,VWS V14.01,2013-04-11 10:00:00,
2013-04-11 06:05:00,66.9,58.0,29.94,NNE,17,1.0,4.0,73,0.00,,SCT,0.00,0.00,VWS V14.01,2013-04-11 10:05:00,
2013-04-11 06:10:00,67.0,58.1,29.95,NNE,17,4.0,4.0,73,0.00,,SCT,0.00,0.00,VWS V14.01,2013-04-11 10:10:00,
2013-04-11 06:15:00,67.1,58.2,29.94,NNE,16,2.0,4.0,73,0.00,,SCT,0.00,0.00,VWS V14.01,2013-04-11 10:15:00,
2013-04-11 06:20:00,67.1,57.8,29.94,NNE,16,3.0,4.0,72,0.00,,SCT,0.00,0.00,VWS V14.01,2013-04-11 10:20:00,
2013-04-11 06:25:00,67.2,57.9,29.94,NNE,16,3.0,4.0,72,0.00,,SCT,0.00,0.00,VWS V14.01,2013-04-11 10:25:00,
2013-04-11 06:30:00,67.2,57.9,29.94,NNE,17,1.0,4.0,72,0.00,,SCT,0.00,0.00,VWS V14.01,2013-04-11 10:30:00,
2013-04-11 06:35:00,66.8,57.9,29.94,NNE,17,2.0,4.0,73,0.00,,SCT,0.00,0.00,VWS V14.01,2013-04-11 10:35:00,
2013-04-11 06:40:00,66.8,57.9,29.94,NNE,17,0.0,4.0,73,0.00,,SCT,0.00,0.00,VWS V14.01,2013-04-11 10:40:00,
2013-04-11 06:45:00,67.2,57.9,29.94,NNE,17,1.0,4.0,72,0.00,,SCT,0.00,0.00,VWS V14.01,2013-04-11 10:45:00,
2013-04-11 06:50:00,67.0,57.7,29.94,NNE,17,1.0,4.0,72,0.00,,SCT,0.00,5.00,VWS V14.01,2013-04-11 10:50:00,
2013-04-11 06:55:00,67.2,57.9,29.94,NNE,17,0.0,1.0,72,0.00,,SCT,0.00,11.00,VWS V14.01,2013-04-11 10:55:00,
2013-04-11 07:00:00,67.1,57.8,29.94,NNE,17,1.0,2.0,72,0.00,,SCT,0.00,14.00,VWS V14.01,2013-04-11 11:00:00,
2013-04-11 07:05:00,66.8,57.9,29.94,NNE,17,0.0,2.0,73,0.00,,SCT,0.00,19.00,VWS V14.01,2013-04-11 11:05:00,
2013-04-11 07:10:00,66.7,57.8,29.94,NNE,17,1.0,3.0,73,0.00,,SCT,0.00,23.00,VWS V14.01,2013-04-11 11:10:00,
2013-04-11 07:15:00,66.8,57.9,29.94,NNE,17,1.0,3.0,73,0.00,,SCT,0.00,21.00,VWS V14.01,2013-04-11 11:15:00,
2013-04-11 07:20:00,66.7,57.8,29.95,NNE,17,0.0,3.0,73,0.00,,SCT,0.00,23.00,VWS V14.01,2013-04-11 11:20:00,
2013-04-11 07:25:00,66.6,57.7,29.95,NNE,17,0.0,3.0,73,0.00,,SCT,0.00,32.00,VWS V14.01,2013-04-11 11:25:00,
2013-04-11 07:30:00,66.5,57.6,29.95,NNE,17,0.0,3.0,73,0.00,,SCT,0.00,37.00,VWS V14.01,2013-04-11 11:30:00,
2013-04-11 07:35:00,66.6,57.7,29.95,NNE,17,0.0,3.0,73,0.00,,SCT,0.00,40.00,VWS V14.01,2013-04-11 11:35:00,
2013-04-11 07:40:00,66.6,58.1,29.95,NNE,17,0.0,3.0,74,0.00,,SCT,0.00,51.00,VWS V14.01,2013-04-11 11:40:00,
2013-04-11 07:45:00,66.5,58.0,29.95,NNE,17,0.0,3.0,74,0.00,,SCT,0.00,76.00,VWS V14.01,2013-04-11 11:45:00,
2013-04-11 07:50:00,66.7,58.2,29.96,NNE,17,0.0,3.0,74,0.00,,SCT,0.00,128.00,VWS V14.01,2013-04-11 11:50:00,
2013-04-11 07:55:00,67.2,58.3,29.96,NNE,17,1.0,2.0,73,0.00,,SCT,0.00,169.00,VWS V14.01,2013-04-11 11:55:00,
2013-04-11 08:00:00,67.4,58.5,29.96,NNE,17,1.0,2.0,73,0.00,,SCT,0.00,197.00,VWS V14.01,2013-04-11 12:00:00,
2013-04-11 08:05:00,67.7,58.7,29.96,NNE,17,0.0,2.0,73,0.00,,SCT,0.00,223.00,VWS V14.01,2013-04-11 12:05:00,
2013-04-11 08:10:00,68.2,58.8,29.96,NNE,17,1.0,3.0,72,0.00,,SCT,0.00,230.00,VWS V14.01,2013-04-11 12:10:00,
2013-04-11 08:15:00,68.8,59.4,29.96,NNE,17,0.0,3.0,72,0.00,,SCT,0.00,230.00,VWS V14.01,2013-04-11 12:15:00,
2013-04-11 08:20:00,69.7,59.5,29.96,NNE,21,5.0,8.0,70,0.00,,SCT,0.00,229.00,VWS V14.01,2013-04-11 12:20:00,
2013-04-11 08:25:00,70.0,59.4,29.96,NNE,30,4.0,8.0,69,0.00,,SCT,0.00,195.00,VWS V14.01,2013-04-11 12:25:00,
2013-04-11 08:30:00,70.1,59.5,29.96,NNE,13,7.0,8.0,69,0.00,,SCT,0.00,227.00,VWS V14.01,2013-04-11 12:30:00,
2013-04-11 08:35:00,70.1,59.5,29.96,North,5,5.0,10.0,69,0.00,,SCT,0.00,230.00,VWS V14.01,2013-04-11 12:35:00,
2013-04-11 08:40:00,70.1,59.5,29.96,North,11,7.0,10.0,69,0.00,,SCT,0.00,336.00,VWS V14.01,2013-04-11 12:40:00,
2013-04-11 08:45:00,70.4,59.3,29.96,NNE,33,5.0,10.0,68,0.00,,SCT,0.00,357.00,VWS V14.01,2013-04-11 12:45:00,
2013-04-11 08:50:00,71.1,59.6,29.96,NNE,22,7.0,10.0,67,0.00,,SCT,0.00,265.00,VWS V14.01,2013-04-11 12:50:00,
2013-04-11 08:55:00,71.2,59.7,29.96,NE,34,6.0,8.0,67,0.00,,SCT,0.00,309.00,VWS V14.01,2013-04-11 12:55:00,
2013-04-11 09:00:00,71.5,59.6,29.96,NNE,17,7.0,8.0,66,0.00,,SCT,0.00,373.00,VWS V14.01,2013-04-11 13:00:00,
2013-04-11 09:05:00,71.6,59.7,29.96,NNE,16,5.0,8.0,66,0.00,,SCT,0.00,334.00,VWS V14.01,2013-04-11 13:05:00,
2013-04-11 09:10:00,72.0,59.6,29.95,North,360,5.0,8.0,65,0.00,,SCT,0.00,364.00,VWS V14.01,2013-04-11 13:10:00,
2013-04-11 09:15:00,72.4,59.1,29.95,NE,36,4.0,8.0,63,0.00,,SCT,0.00,385.00,VWS V14.01,2013-04-11 13:15:00,
2013-04-11 09:20:00,72.5,59.6,29.96,NNE,26,4.0,8.0,64,0.00,,SCT,0.00,322.00,VWS V14.01,2013-04-11 13:20:00,
2013-04-11 09:25:00,72.9,60.0,29.96,NE,39,4.0,8.0,64,0.00,,SCT,0.00,401.00,VWS V14.01,2013-04-11 13:25:00,
2013-04-11 09:30:00,73.6,59.8,29.96,NNE,27,6.0,8.0,62,0.00,,SCT,0.00,504.00,VWS V14.01,2013-04-11 13:30:00,
2013-04-11 09:35:00,73.9,60.1,29.96,NNE,27,5.0,8.0,62,0.00,,SCT,0.00,489.00,VWS V14.01,2013-04-11 13:35:00,
2013-04-11 09:40:00,73.9,60.1,29.96,NNE,15,5.0,8.0,62,0.00,,SCT,0.00,315.00,VWS V14.01,2013-04-11 13:40:00,
2013-04-11 09:45:00,73.9,60.1,29.96,North,5,6.0,8.0,62,0.00,,SCT,0.00,258.00,VWS V14.01,2013-04-11 13:45:00,
2013-04-11 09:50:00,73.9,60.5,29.96,North,5,4.0,8.0,63,0.00,,SCT,0.00,288.00,VWS V14.01,2013-04-11 13:50:00,
2013-04-11 09:55:00,74.1,60.7,29.96,NNW,340,0.0,4.0,63,0.00,,SCT,0.00,334.00,VWS V14.01,2013-04-11 13:55:00,
2013-04-11 10:00:00,74.5,61.1,29.96,North,5,3.0,6.0,63,0.00,,SCT,0.00,462.00,VWS V14.01,2013-04-11 14:00:00,
2013-04-11 10:05:00,75.5,61.1,29.96,NNE,26,8.0,8.0,61,0.00,,SCT,0.00,613.00,VWS V14.01,2013-04-11 14:05:00,
2013-04-11 10:10:00,75.6,60.8,29.96,NE,35,4.0,9.0,60,0.00,,SCT,0.00,631.00,VWS V14.01,2013-04-11 14:10:00,
2013-04-11 10:15:00,75.4,60.1,29.95,NNE,26,11.0,11.0,59,0.00,,SCT,0.00,536.00,VWS V14.01,2013-04-11 14:15:00,
2013-04-11 10:20:00,75.5,60.2,29.95,North,5,6.0,11.0,59,0.00,,SCT,0.00,603.00,VWS V14.01,2013-04-11 14:20:00,
2013-04-11 10:25:00,76.4,61.0,29.95,NNW,338,4.0,11.0,59,0.00,,SCT,0.00,554.00,VWS V14.01,2013-04-11 14:25:00,
2013-04-11 10:30:00,76.9,61.0,29.95,NNE,26,4.0,11.0,58,0.00,,SCT,0.00,659.00,VWS V14.01,2013-04-11 14:30:00,
2013-04-11 10:35:00,77.4,60.5,29.95,NNW,337,5.0,11.0,56,0.00,,SCT,0.00,645.00,VWS V14.01,2013-04-11 14:35:00,
2013-04-11 10:40:00,77.1,60.7,29.95,NW,321,6.0,11.0,57,0.00,,SCT,0.00,612.00,VWS V14.01,2013-04-11 14:40:00,
2013-04-11 10:45:00,77.9,61.0,29.95,NNE,19,9.0,11.0,56,0.00,,SCT,0.00,561.00,VWS V14.01,2013-04-11 14:45:00,
2013-04-11 10:50:00,78.1,61.1,29.95,NW,323,7.0,11.0,56,0.00,,SCT,0.00,424.00,VWS V14.01,2013-04-11 14:50:00,
2013-04-11 10:55:00,77.6,60.7,29.95,North,355,5.0,7.0,56,0.00,,SCT,0.00,348.00,VWS V14.01,2013-04-11 14:55:00,
2013-04-11 11:00:00,77.9,61.0,29.95,NE,40,5.0,7.0,56,0.00,,SCT,0.00,696.00,VWS V14.01,2013-04-11 15:00:00,
2013-04-11 11:05:00,78.6,60.6,29.95,NNE,12,6.0,11.0,54,0.00,,SCT,0.00,703.00,VWS V14.01,2013-04-11 15:05:00,
2013-04-11 11:10:00,78.0,61.0,29.94,North,9,2.0,11.0,56,0.00,,SCT,0.00,717.00,VWS V14.01,2013-04-11 15:10:00,
2013-04-11 11:15:00,78.8,60.8,29.94,North,11,8.0,11.0,54,0.00,,SCT,0.00,708.00,VWS V14.01,2013-04-11 15:15:00,
2013-04-11 11:20:00,78.8,61.3,29.94,NNE,24,7.0,11.0,55,0.00,,SCT,0.00,733.00,VWS V14.01,2013-04-11 15:20:00,
2013-04-11 11:25:00,79.7,61.1,29.94,NNE,30,5.0,11.0,53,0.00,,SCT,0.00,735.00,VWS V14.01,2013-04-11 15:25:00,
2013-04-11 11:30:00,79.8,61.2,29.94,NNE,19,9.0,11.0,53,0.00,,SCT,0.00,712.00,VWS V14.01,2013-04-11 15:30:00,
2013-04-11 11:35:00,79.8,60.6,29.93,NE,46,7.0,11.0,52,0.00,,SCT,0.00,754.00,VWS V14.01,2013-04-11 15:35:00,
2013-04-11 11:40:00,80.7,62.0,29.93,NNE,22,5.0,11.0,53,0.00,,SCT,0.00,751.00,VWS V14.01,2013-04-11 15:40:00,
2013-04-11 11:45:00,81.1,61.8,29.93,NNE,32,5.0,11.0,52,0.00,,SCT,0.00,765.00,VWS V14.01,2013-04-11 15:45:00,
2013-04-11 11:50:00,80.8,62.1,29.93,NNW,329,5.0,11.0,53,0.00,,SCT,0.00,780.00,VWS V14.01,2013-04-11 15:50:00,
2013-04-11 11:55:00,80.9,61.6,29.93,NNE,20,8.0,12.0,52,0.00,,SCT,0.00,751.00,VWS V14.01,2013-04-11 15:55:00,
2013-04-11 12:00:00,80.7,60.9,29.93,NNE,17,7.0,12.0,51,0.00,,SCT,0.00,670.00,VWS V14.01,2013-04-11 16:00:00,
2013-04-11 12:05:00,81.3,61.5,29.93,NNW,336,7.0,13.0,51,0.00,,SCT,0.00,805.00,VWS V14.01,2013-04-11 16:05:00,
2013-04-11 12:10:00,81.3,61.5,29.92,NNW,331,4.0,13.0,51,0.00,,SCT,0.00,817.00,VWS V14.01,2013-04-11 16:10:00,
2013-04-11 12:15:00,81.4,61.5,29.92,NW,321,6.0,13.0,51,0.00,,SCT,0.00,807.00,VWS V14.01,2013-04-11 16:15:00,
2013-04-11 12:20:00,81.5,61.7,29.92,NNW,344,6.0,13.0,51,0.00,,SCT,0.00,809.00,VWS V14.01,2013-04-11 16:20:00,
2013-04-11 12:25:00,82.0,63.2,29.92,NNW,341,2.0,13.0,53,0.00,,SCT,0.00,807.00,VWS V14.01,2013-04-11 16:25:00,
2013-04-11 12:30:00,81.9,62.0,29.92,NW,311,5.0,13.0,51,0.00,,SCT,0.00,814.00,VWS V14.01,2013-04-11 16:30:00,
2013-04-11 12:35:00,82.7,62.8,29.91,NNE,31,13.0,14.0,51,0.00,,SCT,0.00,817.00,VWS V14.01,2013-04-11 16:35:00,
2013-04-11 12:40:00,82.7,61.0,29.91,NE,35,6.0,14.0,48,0.00,,SCT,0.00,824.00,VWS V14.01,2013-04-11 16:40:00,
2013-04-11 12:45:00,82.8,61.1,29.91,NNE,19,2.0,14.0,48,0.00,,SCT,0.00,835.00,VWS V14.01,2013-04-11 16:45:00,
2013-04-11 12:50:00,83.9,60.9,29.90,NNE,13,5.0,14.0,46,0.00,,SCT,0.00,840.00,VWS V14.01,2013-04-11 16:50:00,
2013-04-11 12:55:00,83.9,60.3,29.90,NNE,33,8.0,12.0,45,0.00,,SCT,0.00,849.00,VWS V14.01,2013-04-11 16:55:00,
2013-04-11 13:00:00,84.4,60.1,29.90,NNE,24,9.0,14.0,44,0.00,,SCT,0.00,863.00,VWS V14.01,2013-04-11 17:00:00,
2013-04-11 13:05:00,84.2,59.3,29.89,NNE,12,7.0,14.0,43,0.00,,SCT,0.00,860.00,VWS V14.01,2013-04-11 17:05:00,
2013-04-11 13:10:00,85.3,60.9,29.89,NNW,336,7.0,14.0,44,0.00,,SCT,0.00,877.00,VWS V14.01,2013-04-11 17:10:00,
2013-04-11 13:15:00,85.2,58.9,29.89,NNE,27,13.0,15.0,41,0.00,,SCT,0.00,751.00,VWS V14.01,2013-04-11 17:15:00,
2013-04-11 13:20:00,84.8,58.5,29.88,NNE,19,7.0,15.0,41,0.00,,SCT,0.00,545.00,VWS V14.01,2013-04-11 17:20:00,
2013-04-11 13:25:00,85.0,58.7,29.88,North,9,12.0,15.0,41,0.00,,SCT,0.00,754.00,VWS V14.01,2013-04-11 17:25:00,
2013-04-11 13:30:00,84.8,58.5,29.88,NW,325,9.0,15.0,41,0.00,,SCT,0.00,652.00,VWS V14.01,2013-04-11 17:30:00,
2013-04-11 13:35:00,83.9,59.7,29.88,NW,304,6.0,17.0,44,0.00,,SCT,0.00,512.00,VWS V14.01,2013-04-11 17:35:00,
2013-04-11 13:40:00,83.5,59.3,29.87,NW,312,6.0,17.0,44,0.00,,SCT,0.00,504.00,VWS V14.01,2013-04-11 17:40:00,
2013-04-11 13:45:00,84.7,59.1,29.87,NNE,22,2.0,17.0,42,0.00,,SCT,0.00,515.00,VWS V14.01,2013-04-11 17:45:00,
2013-04-11 13:50:00,84.5,58.2,29.87,North,9,10.0,17.0,41,0.00,,SCT,0.00,475.00,VWS V14.01,2013-04-11 17:50:00,
2013-04-11 13:55:00,84.4,58.2,29.87,NNW,347,7.0,11.0,41,0.00,,SCT,0.00,526.00,VWS V14.01,2013-04-11 17:55:00,
2013-04-11 14:00:00,84.2,58.0,29.86,WNW,302,11.0,19.0,41,0.00,,SCT,0.00,475.00,VWS V14.01,2013-04-11 18:00:00,
2013-04-11 14:05:00,84.4,58.8,29.86,NW,318,5.0,19.0,42,0.00,,SCT,0.00,522.00,VWS V14.01,2013-04-11 18:05:00,
2013-04-11 14:10:00,84.4,58.2,29.86,NW,314,5.0,19.0,41,0.00,,SCT,0.00,424.00,VWS V14.01,2013-04-11 18:10:00,
2013-04-11 14:15:00,84.0,59.1,29.86,North,355,8.0,19.0,43,0.00,,SCT,0.00,436.00,VWS V14.01,2013-04-11 18:15:00,
2013-04-11 14:20:00,84.1,57.9,29.86,NNW,348,6.0,19.0,41,0.00,,SCT,0.00,394.00,VWS V14.01,2013-04-11 18:20:00,
2013-04-11 14:25:00,84.0,57.8,29.86,NNE,23,12.0,23.0,41,0.00,,SCT,0.00,436.00,VWS V14.01,2013-04-11 18:25:00,
2013-04-11 14:30:00,83.9,57.0,29.86,NNW,343,9.0,23.0,40,0.00,,SCT,0.00,475.00,VWS V14.01,2013-04-11 18:30:00,
2013-04-11 14:35:00,83.6,57.4,29.86,NNW,344,5.0,23.0,41,0.00,,SCT,0.00,476.00,VWS V14.01,2013-04-11 18:35:00,
2013-04-11 14:40:00,83.8,57.6,29.86,NNW,331,9.0,23.0,41,0.00,,SCT,0.00,431.00,VWS V14.01,2013-04-11 18:40:00,
2013-04-11 14:45:00,83.7,57.5,29.86,NNW,327,10.0,23.0,41,0.00,,SCT,0.00,429.00,VWS V14.01,2013-04-11 18:45:00,
2013-04-11 14:50:00,83.8,58.3,29.85,North,5,5.0,23.0,42,0.00,,SCT,0.00,439.00,VWS V14.01,2013-04-11 18:50:00,
2013-04-11 14:55:00,83.8,58.3,29.85,North,5,6.0,13.0,42,0.00,,SCT,0.00,425.00,VWS V14.01,2013-04-11 18:55:00,
2013-04-11 15:00:00,83.8,57.6,29.85,NNW,338,13.0,17.0,41,0.00,,SCT,0.00,406.00,VWS V14.01,2013-04-11 19:00:00,
2013-04-11 15:05:00,83.6,57.4,29.85,North,5,11.0,18.0,41,0.00,,SCT,0.00,448.00,VWS V14.01,2013-04-11 19:05:00,
2013-04-11 15:10:00,83.4,56.6,29.85,NNW,347,10.0,24.0,40,0.00,,SCT,0.00,454.00,VWS V14.01,2013-04-11 19:10:00,
2013-04-11 15:15:00,83.5,57.3,29.84,North,355,9.0,24.0,41,0.00,,SCT,0.00,585.00,VWS V14.01,2013-04-11 19:15:00,
2013-04-11 15:20:00,83.9,57.0,29.84,North,351,12.0,24.0,40,0.00,,SCT,0.00,538.00,VWS V14.01,2013-04-11 19:20:00,
2013-04-11 15:25:00,84.0,57.8,29.84,NW,326,3.0,24.0,41,0.00,,SCT,0.00,501.00,VWS V14.01,2013-04-11 19:25:00,
2013-04-11 15:30:00,84.1,57.2,29.83,North,355,17.0,24.0,40,0.00,,SCT,0.00,635.00,VWS V14.01,2013-04-11 19:30:00,
2013-04-11 15:35:00,83.9,57.0,29.83,West,274,6.0,24.0,40,0.00,,SCT,0.00,545.00,VWS V14.01,2013-04-11 19:35:00,
2013-04-11 15:40:00,83.8,57.6,29.83,WNW,293,7.0,24.0,41,0.00,,SCT,0.00,464.00,VWS V14.01,2013-04-11 19:40:00,
2013-04-11 15:45:00,83.9,57.7,29.83,NNW,342,24.0,24.0,41,0.00,,SCT,0.00,605.00,VWS V14.01,2013-04-11 19:45:00,
2013-04-11 15:50:00,84.3,57.4,29.83,NW,317,9.0,27.0,40,0.00,,SCT,0.00,649.00,VWS V14.01,2013-04-11 19:50:00,
2013-04-11 15:55:00,84.3,56.7,29.82,NNE,26,12.0,16.0,39,0.00,,SCT,0.00,664.00,VWS V14.01,2013-04-11 19:55:00,
2013-04-11 16:00:00,85.0,56.6,29.82,North,5,11.0,16.0,38,0.00,,SCT,0.00,671.00,VWS V14.01,2013-04-11 20:00:00,
2013-04-11 16:05:00,84.6,56.2,29.82,North,5,13.0,22.0,38,0.00,,SCT,0.00,396.00,VWS V14.01,2013-04-11 20:05:00,
2013-04-11 16:10:00,84.0,57.1,29.82,NNW,347,12.0,22.0,40,0.00,,SCT,0.00,482.00,VWS V14.01,2013-04-11 20:10:00,
2013-04-11 16:15:00,84.0,56.4,29.81,NW,309,7.0,22.0,39,0.00,,SCT,0.00,585.00,VWS V14.01,2013-04-11 20:15:00,
2013-04-11 16:20:00,84.6,56.9,29.81,North,355,10.0,22.0,39,0.00,,SCT,0.00,496.00,VWS V14.01,2013-04-11 20:20:00,
2013-04-11 16:25:00,84.7,56.3,29.81,NNE,31,10.0,22.0,38,0.00,,SCT,0.00,585.00,VWS V14.01,2013-04-11 20:25:00,
2013-04-11 16:30:00,84.7,56.3,29.81,NNE,17,8.0,25.0,38,0.00,,SCT,0.00,519.00,VWS V14.01,2013-04-11 20:30:00,
2013-04-11 16:35:00,84.9,56.5,29.81,NNW,330,8.0,25.0,38,0.00,,SCT,0.00,445.00,VWS V14.01,2013-04-11 20:35:00,
2013-04-11 16:40:00,84.3,56.7,29.81,NW,325,8.0,25.0,39,0.00,,SCT,0.00,271.00,VWS V14.01,2013-04-11 20:40:00,
2013-04-11 16:45:00,83.9,56.3,29.81,NNW,342,9.0,25.0,39,0.00,,SCT,0.00,218.00,VWS V14.01,2013-04-11 20:45:00,
2013-04-11 16:50:00,83.7,56.1,29.81,North,355,11.0,25.0,39,0.00,,SCT,0.00,209.00,VWS V14.01,2013-04-11 20:50:00,
2013-04-11 16:55:00,83.7,56.1,29.81,NNW,348,11.0,16.0,39,0.00,,SCT,0.00,216.00,VWS V14.01,2013-04-11 20:55:00,
2013-04-11 17:00:00,83.7,56.8,29.81,NNE,17,6.0,17.0,40,0.00,,SCT,0.00,197.00,VWS V14.01,2013-04-11 21:00:00,
2013-04-11 17:05:00,83.6,57.4,29.81,North,5,12.0,17.0,41,0.00,,SCT,0.00,183.00,VWS V14.01,2013-04-11 21:05:00,
2013-04-11 17:10:00,83.4,57.3,29.81,NNW,343,12.0,21.0,41,0.00,,SCT,0.00,172.00,VWS V14.01,2013-04-11 21:10:00,
2013-04-11 17:15:00,83.2,57.1,29.81,NNW,339,14.0,21.0,41,0.00,,SCT,0.00,160.00,VWS V14.01,2013-04-11 21:15:00,
2013-04-11 17:20:00,83.1,57.7,29.81,North,5,12.0,21.0,42,0.00,,SCT,0.00,146.00,VWS V14.01,2013-04-11 21:20:00,
2013-04-11 17:25:00,82.9,58.1,29.81,North,5,22.0,22.0,43,0.00,,SCT,0.00,132.00,VWS V14.01,2013-04-11 21:25:00,
2013-04-11 17:30:00,82.8,58.0,29.81,NNW,337,9.0,24.0,43,0.00,,SCT,0.00,135.00,VWS V14.01,2013-04-11 21:30:00,
2013-04-11 17:35:00,82.7,58.6,29.81,NNW,344,17.0,24.0,44,0.00,,SCT,0.00,146.00,VWS V14.01,2013-04-11 21:35:00,
2013-04-11 17:40:00,82.5,59.0,29.81,North,350,6.0,24.0,45,0.00,,SCT,0.00,142.00,VWS V14.01,2013-04-11 21:40:00,
2013-04-11 17:45:00,82.5,58.4,29.81,NNE,13,16.0,24.0,44,0.00,,SCT,0.00,139.00,VWS V14.01,2013-04-11 21:45:00,
2013-04-11 17:50:00,82.6,57.2,29.81,NNE,29,9.0,24.0,42,0.00,,SCT,0.00,183.00,VWS V14.01,2013-04-11 21:50:00,
2013-04-11 17:55:00,82.7,56.6,29.81,North,10,12.0,24.0,41,0.00,,SCT,0.00,274.00,VWS V14.01,2013-04-11 21:55:00,
2013-04-11 18:00:00,82.9,57.5,29.81,North,350,8.0,24.0,42,0.00,,SCT,0.00,218.00,VWS V14.01,2013-04-11 22:00:00,
2013-04-11 18:05:00,82.7,58.6,29.81,NNW,348,10.0,24.0,44,0.00,,SCT,0.00,158.00,VWS V14.01,2013-04-11 22:05:00,
2013-04-11 18:10:00,82.5,58.4,29.81,NW,311,8.0,24.0,44,0.00,,SCT,0.00,267.00,VWS V14.01,2013-04-11 22:10:00,
2013-04-11 18:15:00,82.5,58.4,29.81,NNW,327,9.0,24.0,44,0.00,,SCT,0.00,220.00,VWS V14.01,2013-04-11 22:15:00,
2013-04-11 18:20:00,82.5,59.0,29.80,North,5,10.0,24.0,45,0.00,,SCT,0.00,179.00,VWS V14.01,2013-04-11 22:20:00,
2013-04-11 18:25:00,82.5,59.0,29.80,North,5,13.0,24.0,45,0.00,,SCT,0.00,206.00,VWS V14.01,2013-04-11 22:25:00,
2013-04-11 18:30:00,82.3,58.9,29.80,North,5,11.0,24.0,45,0.00,,SCT,0.00,156.00,VWS V14.01,2013-04-11 22:30:00,
2013-04-11 18:35:00,82.2,60.0,29.80,North,355,8.0,24.0,47,0.00,,SCT,0.00,116.00,VWS V14.01,2013-04-11 22:35:00,
2013-04-11 18:40:00,81.9,60.3,29.81,North,9,13.0,24.0,48,0.00,,SCT,0.00,102.00,VWS V14.01,2013-04-11 22:40:00,
2013-04-11 18:45:00,81.4,60.4,29.80,North,355,10.0,24.0,49,0.00,,SCT,0.00,86.00,VWS V14.01,2013-04-11 22:45:00,
2013-04-11 18:50:00,81.1,60.7,29.81,NNW,335,9.0,24.0,50,0.00,,SCT,0.00,56.00,VWS V14.01,2013-04-11 22:50:00,
2013-04-11 18:55:00,80.9,61.1,29.81,NNW,342,11.0,16.0,51,0.00,,SCT,0.00,65.00,VWS V14.01,2013-04-11 22:55:00,
2013-04-11 19:00:00,80.6,61.4,29.81,NNW,344,16.0,20.0,52,0.00,,SCT,0.00,42.00,VWS V14.01,2013-04-11 23:00:00,
2013-04-11 19:05:00,80.3,61.1,29.81,NNW,340,11.0,24.0,52,0.00,,SCT,0.00,37.00,VWS V14.01,2013-04-11 23:05:00,
2013-04-11 19:10:00,80.1,60.9,29.81,NW,317,12.0,24.0,52,0.00,,SCT,0.00,32.00,VWS V14.01,2013-04-11 23:10:00,
2013-04-11 19:15:00,79.7,61.1,29.81,NW,325,15.0,24.0,53,0.00,,SCT,0.00,28.00,VWS V14.01,2013-04-11 23:15:00,
2013-04-11 19:20:00,79.5,60.3,29.82,North,355,17.0,24.0,52,0.00,,SCT,0.00,21.00,VWS V14.01,2013-04-11 23:20:00,
2013-04-11 19:25:00,79.3,60.2,29.82,NNW,347,18.0,24.0,52,0.00,,SCT,0.00,18.00,VWS V14.01,2013-04-11 23:25:00,
2013-04-11 19:30:00,79.3,60.2,29.82,North,5,13.0,24.0,52,0.00,,SCT,0.00,12.00,VWS V14.01,2013-04-11 23:30:00,
2013-04-11 19:35:00,79.2,60.1,29.82,NW,326,15.0,24.0,52,0.00,,SCT,0.00,7.00,VWS V14.01,2013-04-11 23:35:00,
2013-04-11 19:40:00,79.0,59.9,29.81,NNW,331,10.0,24.0,52,0.00,,SCT,0.00,0.00,VWS V14.01,2013-04-11 23:40:00,
2013-04-11 19:45:00,78.9,59.8,29.81,WNW,295,10.0,24.0,52,0.00,,SCT,0.00,0.00,VWS V14.01,2013-04-11 23:45:00,
2013-04-11 19:50:00,78.8,60.2,29.81,NW,310,12.0,24.0,53,0.00,,SCT,0.00,0.00,VWS V14.01,2013-04-11 23:50:00,
2013-04-11 19:55:00,78.7,60.2,29.81,NW,325,4.0,15.0,53,0.00,,SCT,0.00,0.00,VWS V14.01,2013-04-11 23:55:00,
2013-04-11 20:00:00,78.5,60.0,29.82,North,5,16.0,20.0,53,0.00,,SCT,0.00,0.00,VWS V14.01,2013-04-12 00:00:00,
2013-04-11 20:05:00,78.5,60.0,29.82,NW,325,11.0,22.0,53,0.00,,SCT,0.00,0.00,VWS V14.01,2013-04-12 00:05:00,
2013-04-11 20:10:00,78.4,60.4,29.82,NW,311,8.0,22.0,54,0.00,,SCT,0.00,0.00,VWS V14.01,2013-04-12 00:10:00,
2013-04-11 20:15:00,78.1,60.1,29.82,North,9,7.0,22.0,54,0.00,,SCT,0.00,0.00,VWS V14.01,2013-04-12 00:15:00,
2013-04-11 20:20:00,78.0,60.0,29.82,WNW,290,7.0,22.0,54,0.00,,SCT,0.00,0.00,VWS V14.01,2013-04-12 00:20:00,
2013-04-11 20:25:00,77.7,60.3,29.82,WNW,298,7.0,22.0,55,0.00,,SCT,0.00,0.00,VWS V14.01,2013-04-12 00:25:00,
2013-04-11 20:30:00,77.5,60.1,29.82,WNW,294,7.0,22.0,55,0.00,,SCT,0.00,0.00,VWS V14.01,2013-04-12 00:30:00,
2013-04-11 20:35:00,77.2,60.3,29.82,WNW,293,7.0,22.0,56,0.00,,SCT,0.00,0.00,VWS V14.01,2013-04-12 00:35:00,
2013-04-11 20:40:00,77.1,60.2,29.82,WNW,292,5.0,22.0,56,0.00,,SCT,0.00,0.00,VWS V14.01,2013-04-12 00:40:00,
2013-04-11 20:45:00,76.9,60.0,29.82,WNW,284,5.0,22.0,56,0.00,,SCT,0.00,0.00,VWS V14.01,2013-04-12 00:45:00,
2013-04-11 20:50:00,76.7,59.8,29.82,WNW,299,5.0,22.0,56,0.00,,SCT,0.00,0.00,VWS V14.01,2013-04-12 00:50:00,
2013-04-11 20:55:00,76.6,59.8,29.82,West,269,9.0,15.0,56,0.00,,SCT,0.00,0.00,VWS V14.01,2013-04-12 00:55:00,
2013-04-11 21:00:00,76.6,60.2,29.82,West,277,8.0,15.0,57,0.00,,SCT,0.00,0.00,VWS V14.01,2013-04-12 01:00:00,
2013-04-11 21:05:00,76.5,60.2,29.82,WNW,294,9.0,15.0,57,0.00,,SCT,0.00,0.00,VWS V14.01,2013-04-12 01:05:00,
2013-04-11 21:10:00,76.3,60.5,29.82,NW,325,6.0,15.0,58,0.00,,SCT,0.00,0.00,VWS V14.01,2013-04-12 01:10:00,
2013-04-11 21:15:00,76.1,60.3,29.82,WNW,289,8.0,15.0,58,0.00,,SCT,0.00,0.00,VWS V14.01,2013-04-12 01:15:00,
2013-04-11 21:20:00,76.1,60.3,29.82,WNW,294,9.0,15.0,58,0.00,,SCT,0.00,0.00,VWS V14.01,2013-04-12 01:20:00,
2013-04-11 21:25:00,76.0,60.2,29.82,NNW,333,8.0,15.0,58,0.00,,SCT,0.00,0.00,VWS V14.01,2013-04-12 01:25:00,
2013-04-11 21:30:00,75.9,60.1,29.82,WNW,295,12.0,15.0,58,0.00,,SCT,0.00,0.00,VWS V14.01,2013-04-12 01:30:00,
2013-04-11 21:35:00,75.8,60.0,29.82,WNW,302,7.0,15.0,58,0.00,,SCT,0.00,0.00,VWS V14.01,2013-04-12 01:35:00,
2013-04-11 21:40:00,75.7,59.9,29.82,WNW,284,8.0,15.0,58,0.00,,SCT,0.00,0.00,VWS V14.01,2013-04-12 01:40:00,
2013-04-11 21:45:00,75.7,59.9,29.82,NW,315,5.0,15.0,58,0.00,,SCT,0.00,0.00,VWS V14.01,2013-04-12 01:45:00,
2013-04-11 21:50:00,75.7,59.9,29.82,WNW,297,9.0,15.0,58,0.00,,SCT,0.00,0.00,VWS V14.01,2013-04-12 01:50:00,
2013-04-11 21:55:00,75.5,59.7,29.81,WNW,293,9.0,11.0,58,0.00,,SCT,0.00,0.00,VWS V14.01,2013-04-12 01:55:00,
2013-04-11 22:00:00,75.4,59.6,29.82,WNW,299,5.0,11.0,58,0.00,,SCT,0.00,0.00,VWS V14.01,2013-04-12 02:00:00,
2013-04-11 22:05:00,75.5,59.7,29.81,WNW,301,5.0,12.0,58,0.00,,SCT,0.00,0.00,VWS V14.01,2013-04-12 02:05:00,
2013-04-11 22:10:00,75.1,59.8,29.81,WNW,285,5.0,12.0,59,0.00,,SCT,0.00,0.00,VWS V14.01,2013-04-12 02:10:00,
2013-04-11 22:15:00,75.2,59.9,29.82,WNW,296,8.0,18.0,59,0.00,,SCT,0.00,0.00,VWS V14.01,2013-04-12 02:15:00,
2013-04-11 22:20:00,75.1,59.8,29.82,NW,304,12.0,18.0,59,0.00,,SCT,0.00,0.00,VWS V14.01,2013-04-12 02:20:00,
2013-04-11 22:25:00,75.2,59.9,29.81,WNW,296,13.0,18.0,59,0.00,,SCT,0.00,0.00,VWS V14.01,2013-04-12 02:25:00,
2013-04-11 22:30:00,75.3,59.5,29.82,WNW,288,7.0,20.0,58,0.00,,SCT,0.00,0.00,VWS V14.01,2013-04-12 02:30:00,
2013-04-11 22:35:00,75.3,59.5,29.82,North,9,10.0,20.0,58,0.00,,SCT,0.00,0.00,VWS V14.01,2013-04-12 02:35:00,
2013-04-11 22:40:00,75.3,59.5,29.81,NW,320,9.0,20.0,58,0.00,,SCT,0.00,0.00,VWS V14.01,2013-04-12 02:40:00,
2013-04-11 22:45:00,75.4,59.6,29.81,WNW,302,8.0,20.0,58,0.00,,SCT,0.00,0.00,VWS V14.01,2013-04-12 02:45:00,
2013-04-11 22:50:00,75.3,60.0,29.81,NNW,327,11.0,20.0,59,0.00,,SCT,0.00,0.00,VWS V14.01,2013-04-12 02:50:00,
2013-04-11 22:55:00,75.2,59.9,29.81,NW,311,9.0,16.0,59,0.00,,SCT,0.00,0.00,VWS V14.01,2013-04-12 02:55:00,
2013-04-11 23:00:00,75.1,59.8,29.81,WNW,298,6.0,16.0,59,0.00,,SCT,0.00,0.00,VWS V14.01,2013-04-12 03:00:00,
2013-04-11 23:05:00,75.0,59.7,29.81,NNW,330,14.0,17.0,59,0.00,,SCT,0.00,0.00,VWS V14.01,2013-04-12 03:05:00,
2013-04-11 23:10:00,75.0,59.7,29.81,NW,319,9.0,19.0,59,0.00,,SCT,0.00,0.00,VWS V14.01,2013-04-12 03:10:00,
2013-04-11 23:15:00,74.8,60.0,29.81,NW,312,6.0,19.0,60,0.00,,SCT,0.00,0.00,VWS V14.01,2013-04-12 03:15:00,
2013-04-11 23:20:00,75.0,60.2,29.81,North,349,11.0,20.0,60,0.00,,SCT,0.00,0.00,VWS V14.01,2013-04-12 03:20:00,
2013-04-11 23:25:00,75.1,60.3,29.81,NW,323,12.0,20.0,60,0.00,,SCT,0.00,0.00,VWS V14.01,2013-04-12 03:25:00,
2013-04-11 23:30:00,75.1,60.3,29.81,NW,306,5.0,21.0,60,0.00,,SCT,0.00,0.00,VWS V14.01,2013-04-12 03:30:00,
2013-04-11 23:35:00,75.1,60.3,29.81,NW,309,10.0,21.0,60,0.00,,SCT,0.00,0.00,VWS V14.01,2013-04-12 03:35:00,
2013-04-11 23:40:00,75.0,60.2,29.80,NW,306,8.0,21.0,60,0.00,,SCT,0.00,0.00,VWS V14.01,2013-04-12 03:40:00,
2013-04-11 23:45:00,74.8,60.0,29.80,NW,319,7.0,21.0,60,0.00,,SCT,0.00,0.00,VWS V14.01,2013-04-12 03:45:00,
2013-04-11 23:50:00,74.6,59.8,29.80,NW,309,10.0,21.0,60,0.00,,SCT,0.00,0.00,VWS V14.01,2013-04-12 03:50:00,
2013-04-11 23:55:00,74.4,60.1,29.80,NW,315,5.0,14.0,61,0.00,,SCT,0.00,0.00,VWS V14.01,2013-04-12 03:55:00,